Weather History for KBLH - March, 2013

Change the Weather History Date:

Wednesday, March 20, 2013

  Actual Average Record
Temperature  
Mean Temperature 71 °F -  
Max Temperature 88 °F 80 °F 98 °F (1997)
Min Temperature 55 °F 52 °F 41 °F (2012)
Cooling Degree Days 6    
Growing Degree Days 21 (Base 50)    
Moisture  
Dew Point 33 °F    
Average Humidity 24    
Maximum Humidity 36    
Minimum Humidity 15    
Precipitation  
Precipitation 0.00 in - - ()
Sea Level Pressure  
Sea Level Pressure 29.88 in    
Wind  
Wind Speed 3 mph (West)    
Max Wind Speed 13 mph    
Max Gust Speed -    
Visibility 10 miles    
Events      
Averages and records for this station are not official NWS values.
T = Trace of Precipitation, MM = Missing Value Source: NWS Daily Summary

Daily Weather History Graph

Daily Weather History Graph

Search for Another Location

Airport or City:

Trip Planner

Search our weather history database for the weather conditions in past years. The results will help you decide how hot, cold, wet, or windy it might be!

Date:

Astronomy

Mar. 20, 2013 Rise Set
Actual Time 6:42 AM PDT 6:50 PM PDT
Civil Twilight 6:17 AM PDT 7:15 PM PDT
Nautical Twilight 5:48 AM PDT 7:44 PM PDT
Astronomical Twilight 5:19 AM PDT 8:13 PM PDT
Moon 12:44 PM PDT (3/20) 2:09 AM PDT (3/20)
Length of Visible Light 12h 58m
Length of Day
12h 08m
First Quarter, 60% of the Moon is Illuminated
Mar 20
First Quarter
Mar 27
Full
Apr 2
Last Quarter
Apr 10
New
Apr 18
First Quarter

Hourly Weather History & Observations

Time (PDT) Temp. Dew Point Humidity Pressure Visibility Wind Dir Wind Speed Gust Speed Precip Events Conditions
12:52 AM 62.1 °F 27.0 °F 26% 29.94 in 10.0 mi Calm Calm - N/A   Clear
1:52 AM 59.0 °F 27.0 °F 29% 29.95 in 10.0 mi Calm Calm - N/A   Clear
2:52 AM 59.0 °F 27.0 °F 29% 29.94 in 10.0 mi NW 4.6 mph - N/A   Clear
3:52 AM 61.0 °F 27.0 °F 27% 29.93 in 10.0 mi NW 4.6 mph - N/A   Clear
4:52 AM 57.9 °F 27.0 °F 31% 29.91 in 10.0 mi NE 3.5 mph - N/A   Clear
5:52 AM 57.9 °F 28.0 °F 32% 29.93 in 10.0 mi NNW 3.5 mph - N/A   Clear
6:52 AM 55.9 °F 28.9 °F 36% 29.95 in 10.0 mi NNW 4.6 mph - N/A   Clear
7:52 AM 60.1 °F 28.9 °F 31% 29.98 in 10.0 mi Calm Calm - N/A   Clear
8:52 AM 64.0 °F 36.0 °F 35% 29.97 in 10.0 mi SSE 3.5 mph - N/A   Clear
9:52 AM 69.1 °F 37.0 °F 31% 29.96 in 10.0 mi Calm Calm - N/A   Clear
10:52 AM 75.0 °F 36.0 °F 24% 29.96 in 10.0 mi Calm Calm - N/A   Clear
11:52 AM 78.1 °F 35.1 °F 21% 29.94 in 10.0 mi Calm Calm - N/A   Clear
12:52 PM 82.9 °F 36.0 °F 19% 29.90 in 10.0 mi East 4.6 mph - N/A   Clear
1:52 PM 86.0 °F 36.0 °F 17% 29.87 in 10.0 mi Calm Calm - N/A   Clear
2:52 PM 87.1 °F 37.0 °F 17% 29.84 in 10.0 mi SSE 3.5 mph - N/A   Clear
3:52 PM 87.1 °F 39.0 °F 18% 29.81 in 10.0 mi ESE 6.9 mph - N/A   Clear
4:52 PM 87.1 °F 37.9 °F 18% 29.79 in 10.0 mi East 4.6 mph - N/A   Clear
5:52 PM 84.9 °F 41.0 °F 21% 29.78 in 10.0 mi East 4.6 mph - N/A   Clear
7:52 PM 82.9 °F 30.9 °F 15% 29.79 in 10.0 mi WSW 12.7 mph - N/A   Clear
8:52 PM 81.0 °F 33.1 °F 18% 29.79 in 10.0 mi WSW 11.5 mph - N/A   Clear
9:52 PM 79.0 °F 34.0 °F 20% 29.78 in 10.0 mi WSW 11.5 mph - N/A   Clear
10:52 PM 78.1 °F 34.0 °F 20% 29.78 in 10.0 mi West 6.9 mph - N/A   Clear
11:52 PM 77.0 °F 37.0 °F 24% 29.75 in 10.0 mi WSW 9.2 mph - N/A   Clear